EW2997 Weather Reports


time (UTC)temp
C
wind
direction
speed
KPH
gust
KPH
rain 1hr
cm
rain 24hr
cm
rain mn
cm
humidity
%
barometer
mb
20260903195228 28 210 3.2 3.2 0.00 0.94 0.94 73 1018.4
20260903192228 28 243 8.0 9.7 0.00 0.94 0.94 74 1018.7
20260903185227 27 192 1.6 1.6 0.00 0.94 0.94 71 1019.5
20260903182226 26 168 4.8 6.4 0.00 0.94 0.94 78 1020.2
20260903175225 24 240 3.2 3.2 0.00 0.94 0.94 86 1020.2
20260903172224 23 216 6.4 6.4 0.00 0.94 0.94 88 1020.5
20260903165220 23 235 8.0 8.0 0.00 0.94 0.94 87 1020.8
20260903162216 21 175 0.0 0.0 0.00 0.94 0.94 94 1021.5
20260903155213 21 206 0.0 0.0 0.03 0.94 0.94 94 1021.9
20260903152211 21 192 0.0 0.0 0.00 0.91 0.91 94 1022.5
20260903145209 20 216 3.2 3.2 0.46 0.91 0.91 95 1022.2
20260903142204 20 176 3.2 3.2 0.43 0.86 0.86 95 1021.5
20260903135159 21 312 1.6 1.6 0.00 0.08 0.08 91 1022.9
20260903132154 21 263 3.2 3.2 0.00 0.08 0.08 93 1021.9
20260903125149 21 195 3.2 3.2 0.00 0.08 0.08 93 1022.2
20260903122148 20 214 0.0 0.0 0.00 0.08 0.08 94 1021.5
20260903115142 20 186 3.2 3.2 0.08 0.08 0.08 95 1021.9
20260903112137 20 203 3.2 3.2 0.03 0.03 0.03 95 1022.2
20260903105137 20 268 4.8 4.8 0.00 0.00 0.00 93 1021.5
20260903102135 20 299 1.6 1.6 0.00 0.00 0.00 92 1022.2
20260903095134 21 84 3.2 3.2 0.00 0.00 0.00 88 1021.5
20260903092133 21 120 0.0 0.0 0.00 0.00 0.00 94 1021.9
20260903085133 21 264 0.0 0.0 0.00 0.00 0.00 97 1021.2
20260903082129 20 264 0.0 0.0 0.00 0.00 0.00 97 1021.2
20260903075125 20 253 0.0 0.0 0.00 0.00 0.00 97 1020.5
20260903072125 20 253 0.0 0.0 0.00 0.00 0.00 97 1020.2
20260903065123 20 253 0.0 0.0 0.00 0.00 0.00 97 1020.5
20260903062123 20 253 0.0 0.0 0.00 0.00 0.00 97 1020.5
20260903055121 20 253 0.0 0.0 0.00 0.00 0.00 97 1020.2
20260903052118 20 253 1.6 1.6 0.00 0.00 0.00 97 1020.2
20260903045116 20 253 0.0 0.0 0.00 0.00 0.00 97 1020.2
20260903042115 20 253 0.0 0.0 0.00 0.00 0.00 97 1020.5
20260903035112 20 253 0.0 0.0 0.00 0.74 0.74 97 1020.5
20260903032111 20 253 0.0 0.0 0.00 0.74 0.74 97 1021.2
20260903025106 20 253 3.2 3.2 0.00 0.74 0.74 97 1020.5
20260903022101 21 253 0.0 0.0 0.00 0.74 0.74 97 1020.5
20260903015100 21 253 0.0 0.0 0.00 0.74 0.74 96 1020.8
20260903012059 21 253 0.0 0.0 0.00 0.74 0.74 96 1020.8
20260903005055 22 253 0.0 0.0 0.00 0.74 0.74 96 1020.5
20260903002054 22 253 0.0 0.0 0.00 0.74 0.74 95 1020.5
20260902235050 22 127 0.0 0.0 0.28 0.71 0.71 95 1021.2
20260902232049 23 197 0.0 0.0 0.10 0.56 0.56 93 1021.9
20260902225044 23 196 0.0 0.0 0.00 0.38 0.38 89 1021.2
20260902222043 25 196 3.2 3.2 0.00 0.38 0.38 80 1020.5
20260902215043 26 121 0.0 0.0 0.00 0.38 0.38 72 1020.5
20260902212041 27 122 6.4 6.4 0.00 0.38 0.38 65 1021.2
20260902205038 27 197 1.6 1.6 0.00 0.38 0.38 68 1021.2
20260902202037 28 83 3.2 3.2 0.00 0.38 0.38 64 1021.2